Wind_Speed
19 18 18 17 17 16 16 16 16 15 14 12 11 10 9 8 8 8 9 9 10 10 10 11 12 13 14 14 14 13 12 12 11 11 10 10 10 10 10 10 11 11
19 19 19 19 17 16 16 16 16 16 15 15 14 14 13 12 11 11 11 11 12 12 12 12 13 14 15 15 15 14 13 12 12 11 10 10 10 10 10 10 11 12
21 21 21 21 19 18 18 18 18 17 17 18 17 17 16 15 14 14 13 13 13 13 14 14 14 15 15 15 15 15 14 13 12 11 10 10 10 11 11 11 11 12
23 23 24 23 22 22 21 21 21 20 20 20 20 19 18 17 17 15 15 15 15 15 15 16 16 16 16 16 15 15 14 13 13 12 10 10 11 11 12 12 12 12
25 26 26 25 25 25 25 25 24 24 24 24 23 22 20 19 18 17 16 16 17 17 17 18 18 18 18 18 17 15 14 14 13 12 11 11 11 12 12 12 12 12
28 28 28 27 27 28 28 28 27 27 27 27 26 25 23 22 21 20 18 17 18 19 18 19 19 19 19 20 19 17 15 15 14 13 12 11 12 12 12 11 11 12
30 30 30 29 30 31 31 31 31 30 30 31 30 29 27 25 25 25 23 21 20 20 20 21 20 19 21 21 21 19 17 15 15 13 12 12 12 12 12 11 11 11
30 31 32 33 33 34 34 34 34 33 33 33 32 32 30 27 26 27 26 24 24 25 25 23 21 20 22 23 22 21 19 17 15 14 13 13 12 12 12 11 10 11
29 31 33 35 36 36 37 37 36 36 36 35 34 34 33 30 28 26 24 25 28 30 28 24 23 22 23 24 24 22 20 18 15 14 14 13 13 13 12 11 11 11
27 29 31 33 34 36 38 39 39 38 37 36 35 35 34 33 31 29 30 33 34 34 32 28 27 26 24 24 24 23 21 18 16 15 15 15 14 14 13 11 11 12
28 29 30 30 31 35 39 40 41 40 38 37 38 38 37 37 37 37 39 43 42 38 35 32 31 30 27 24 24 24 21 18 17 17 17 16 15 14 14 13 13 13
29 29 30 30 31 36 42 44 42 40 39 40 41 40 39 42 46 45 43 45 46 42 38 35 34 34 31 28 25 24 22 19 18 18 18 17 17 16 16 16 15 14
29 29 30 32 33 37 42 43 39 38 40 42 43 42 43 44 45 46 45 45 46 47 46 42 40 40 38 34 28 23 22 21 19 19 19 18 18 19 18 17 16 15
28 29 31 34 35 40 45 41 36 37 40 41 42 41 40 40 39 40 45 47 47 49 51 49 47 46 43 38 32 25 22 22 21 20 21 20 20 20 20 18 17 16
29 30 32 34 34 40 46 40 34 34 32 32 34 35 37 42 43 43 47 51 51 50 52 53 53 52 45 38 36 31 25 24 24 21 21 22 21 20 21 20 18 17
30 30 32 34 34 37 39 34 30 31 29 27 29 32 37 44 48 48 48 52 53 52 54 57 58 57 50 42 41 40 32 28 27 23 22 23 21 20 21 20 19 19
29 31 33 35 33 30 29 28 28 29 29 29 29 30 32 37 42 45 46 49 51 51 55 60 60 61 58 49 46 46 41 36 31 26 23 23 22 21 21 21 20 21
31 33 34 34 31 27 25 27 28 28 27 27 29 29 29 31 37 41 43 46 48 49 55 60 61 62 61 53 49 49 46 42 34 26 24 24 22 22 22 22 22 23
31 32 32 32 30 27 25 25 25 26 26 25 27 29 29 30 33 36 39 43 48 51 54 58 61 61 59 54 49 47 46 44 35 26 24 24 23 22 22 23 24 25
29 30 31 30 28 25 24 24 24 25 26 27 29 30 30 30 32 33 36 40 46 52 55 57 59 60 57 52 46 43 43 42 36 28 24 24 23 23 23 24 25 28
28 29 28 26 25 24 25 26 26 25 26 28 30 30 30 31 32 34 35 37 42 48 52 54 58 60 55 49 45 43 43 42 37 30 25 24 24 23 24 26 27 30
26 25 24 24 25 26 26 26 26 26 26 27 28 30 29 28 28 29 31 36 41 45 48 51 57 59 53 46 45 44 42 41 38 30 26 25 24 25 26 25 26 30
24 23 24 25 26 27 27 26 26 25 25 26 28 29 26 23 22 20 22 27 33 38 43 48 54 56 52 46 44 41 38 38 34 28 26 25 25 28 29 25 23 27
23 24 25 26 27 27 27 27 27 26 25 26 28 29 26 23 21 20 22 25 27 30 35 41 48 53 50 45 40 36 35 34 31 28 26 25 27 32 31 27 27 30
24 26 27 28 28 28 28 29 29 28 27 27 28 28 25 21 18 17 22 28 32 32 33 38 45 48 43 38 35 33 32 31 29 27 26 26 29 32 30 29 32 33
27 29 30 30 29 28 28 29 30 29 29 28 27 26 22 18 14 13 15 21 28 31 30 33 37 37 32 29 30 30 29 28 26 25 26 27 29 30 30 32 35 34
Wind_Direction
204 207 209 210 212 213 214 215 216 218 220 226 234 242 251 261 271 281 287 289 290 296 303 308 311 315 320 324 326 326 321 317 316 314 308 302 299 296 297 299 299 300
211 212 212 211 212 213 214 215 216 218 225 232 240 248 255 262 269 275 283 289 291 294 297 300 303 307 311 317 321 321 317 312 310 308 302 298 299 299 301 303 303 308
219 218 217 216 217 217 217 218 220 223 230 237 245 251 256 260 266 272 280 287 292 295 296 298 300 302 304 308 312 313 310 306 303 301 293 291 295 298 300 303 303 306
224 223 222 220 221 223 224 226 230 232 236 241 246 250 252 257 262 267 274 281 287 291 295 298 298 297 299 301 304 305 303 300 297 293 287 285 290 294 298 302 302 303
229 228 227 226 226 229 230 233 238 240 241 244 246 248 252 257 261 265 271 276 280 284 291 299 297 293 294 297 299 299 295 294 292 287 281 281 286 291 295 299 301 303
234 233 232 232 233 236 236 239 243 244 244 246 248 250 255 261 266 267 268 270 275 279 289 297 294 288 291 294 295 294 290 287 287 283 278 280 285 288 292 297 301 303
239 239 239 239 239 240 240 241 244 245 246 249 251 253 257 263 268 269 268 269 270 275 286 294 291 285 288 293 293 290 285 281 282 279 276 279 284 286 290 295 301 305
242 243 244 243 243 245 246 247 247 248 249 251 253 254 256 260 265 269 272 270 267 272 280 284 285 283 283 288 291 288 282 278 278 276 274 276 279 281 285 291 299 305
245 247 247 245 245 247 250 251 251 251 252 253 252 252 255 259 263 268 269 262 266 281 288 280 276 279 280 283 286 285 279 276 276 274 271 272 272 273 278 285 295 301
248 252 254 253 251 252 253 254 253 251 250 251 253 254 255 256 260 265 266 262 269 286 290 281 276 274 273 278 281 280 276 272 271 270 268 266 266 268 272 280 290 294
250 255 259 259 261 261 256 252 250 248 249 254 260 263 260 257 263 271 272 269 273 280 279 276 277 274 270 272 276 276 273 268 266 265 265 264 263 265 269 275 285 289
251 256 261 264 267 263 253 247 247 251 255 260 266 270 267 264 270 276 276 272 273 276 274 273 275 275 271 266 268 272 269 264 262 262 263 263 262 264 268 273 282 290
253 259 265 267 268 266 260 256 258 264 267 267 270 274 274 274 278 280 279 276 273 271 271 271 271 273 271 265 260 264 265 261 260 260 261 262 262 264 269 274 282 292
254 260 264 266 270 273 270 266 268 273 276 276 277 277 278 282 287 283 276 274 272 269 267 268 268 267 268 266 258 253 256 256 253 256 259 260 263 266 270 277 284 290
255 259 264 267 270 274 273 273 278 284 285 283 280 278 274 274 277 278 273 268 269 269 267 267 268 265 264 265 257 247 244 246 245 249 257 259 261 267 272 278 284 288
257 261 266 268 268 271 275 281 289 293 292 287 280 275 270 267 269 275 275 270 268 270 269 268 269 267 266 265 259 248 237 233 236 240 250 256 258 265 272 276 283 288
259 265 269 271 272 275 280 286 291 293 291 289 283 276 269 266 267 271 274 271 269 269 268 268 268 269 268 266 263 257 244 229 225 229 239 249 254 261 269 274 281 288
265 270 273 277 281 284 286 289 292 293 291 288 285 279 270 264 264 266 268 270 269 267 267 267 267 268 268 266 267 268 256 236 224 224 232 244 252 258 265 272 279 287
269 274 278 283 287 290 291 292 294 295 294 291 287 282 275 267 265 265 266 266 265 265 266 267 267 267 266 266 268 272 265 249 234 227 230 241 251 257 264 271 277 283
273 278 282 285 289 293 295 296 297 296 296 295 292 287 281 275 272 271 269 265 263 263 263 266 268 266 264 265 265 270 271 258 241 228 228 238 248 255 263 269 274 277
275 278 281 284 289 295 298 298 299 300 299 297 293 289 287 284 279 274 270 264 261 261 261 264 266 264 262 261 262 270 272 259 242 233 234 240 247 254 261 265 270 275
272 275 281 287 294 300 303 304 305 305 303 299 293 291 290 286 280 277 273 266 261 260 261 263 264 263 261 260 266 271 267 254 243 237 237 244 250 254 258 264 272 281
272 277 285 292 299 304 307 310 312 310 307 302 296 296 292 279 270 274 275 269 264 263 262 262 265 265 263 265 270 269 259 249 243 237 237 245 253 256 259 266 274 281
274 282 290 295 302 308 311 315 316 313 309 304 299 299 295 280 267 266 267 265 264 267 268 266 265 264 265 268 269 262 251 244 239 237 238 245 255 260 263 270 276 279
282 289 295 300 305 310 314 317 317 314 310 305 301 298 291 278 266 264 267 265 264 268 274 271 266 265 267 268 263 253 245 239 237 241 248 255 263 266 269 277 281 281
292 296 299 302 306 310 314 316 315 313 310 305 300 294 282 267 260 262 264 264 263 265 267 266 264 264 264 261 253 245 240 238 241 250 260 267 271 272 276 281 280 280
Height
3190 3191 3192 3193 3194 3195 3196 3197 3198 3199 3199 3199 3199 3199 3199 3199 3199 3199 3198 3198 3197 3197 3196 3196 3195 3194 3194 3193 3191 3191 3190 3189 3188 3187 3186 3186 3185 3185 3184 3183 3183 3182
3188 3189 3190 3192 3193 3194 3195 3195 3196 3197 3197 3197 3197 3197 3197 3197 3197 3197 3196 3196 3196 3196 3195 3195 3194 3193 3192 3191 3190 3189 3189 3188 3187 3186 3185 3184 3184 3183 3182 3182 3181 3180
3186 3187 3189 3190 3191 3192 3193 3194 3194 3195 3195 3195 3195 3195 3195 3195 3195 3195 3195 3195 3194 3194 3194 3193 3193 3192 3191 3190 3189 3188 3187 3187 3186 3185 3184 3183 3182 3181 3181 3180 3180 3179
3184 3185 3187 3188 3189 3190 3191 3192 3192 3192 3193 3193 3193 3193 3193 3193 3193 3193 3193 3193 3193 3192 3192 3192 3191 3191 3189 3188 3187 3186 3186 3185 3184 3183 3182 3182 3181 3180 3179 3179 3178 3178
3182 3183 3185 3186 3187 3188 3189 3189 3189 3190 3190 3190 3190 3191 3191 3191 3191 3191 3191 3191 3190 3190 3189 3189 3189 3188 3187 3186 3186 3185 3184 3183 3182 3182 3181 3180 3179 3179 3178 3177 3177 3176
3180 3181 3183 3184 3185 3185 3186 3186 3186 3187 3187 3187 3188 3188 3188 3189 3189 3189 3189 3188 3188 3188 3187 3187 3186 3186 3185 3184 3184 3183 3182 3181 3180 3180 3179 3178 3178 3177 3176 3175 3175 3174
3178 3179 3181 3182 3182 3182 3183 3183 3183 3184 3184 3184 3185 3185 3185 3186 3186 3186 3185 3185 3185 3185 3184 3184 3183 3183 3182 3182 3181 3181 3180 3179 3178 3178 3177 3176 3176 3175 3174 3173 3173 3172
3176 3177 3178 3179 3179 3179 3180 3180 3180 3181 3181 3181 3182 3183 3183 3183 3183 3183 3182 3182 3182 3181 3181 3181 3180 3180 3180 3179 3179 3178 3178 3177 3176 3176 3175 3174 3173 3173 3172 3172 3171 3170
3174 3174 3174 3175 3176 3176 3176 3177 3178 3179 3179 3180 3181 3181 3181 3181 3181 3180 3180 3179 3178 3177 3178 3179 3178 3177 3177 3176 3176 3176 3175 3174 3174 3173 3173 3172 3171 3171 3170 3170 3169 3169
3170 3170 3171 3172 3173 3173 3173 3175 3176 3176 3177 3179 3179 3179 3180 3179 3178 3178 3177 3175 3174 3175 3175 3175 3175 3174 3174 3173 3173 3173 3173 3172 3171 3171 3170 3170 3169 3169 3168 3168 3167 3167
3167 3167 3168 3170 3171 3170 3171 3173 3174 3175 3177 3178 3177 3177 3178 3176 3174 3174 3173 3170 3170 3172 3172 3171 3171 3170 3170 3170 3170 3170 3170 3169 3169 3168 3168 3167 3167 3166 3166 3165 3165 3164
3165 3165 3166 3167 3168 3168 3168 3169 3171 3173 3175 3175 3173 3172 3172 3171 3168 3167 3167 3166 3165 3165 3165 3166 3166 3166 3166 3166 3166 3167 3167 3166 3166 3166 3165 3164 3164 3164 3163 3162 3162 3161
3162 3164 3164 3164 3165 3164 3161 3163 3167 3170 3171 3170 3168 3167 3165 3164 3163 3162 3161 3161 3160 3159 3158 3160 3161 3161 3162 3162 3162 3163 3163 3163 3163 3163 3162 3162 3161 3161 3160 3159 3159 3158
3160 3161 3161 3161 3161 3159 3155 3160 3166 3167 3166 3164 3162 3160 3158 3157 3157 3156 3155 3155 3155 3154 3153 3153 3154 3155 3156 3158 3157 3158 3159 3159 3159 3159 3159 3159 3158 3158 3157 3156 3156 3155
3156 3156 3156 3157 3159 3155 3153 3158 3163 3161 3159 3157 3154 3153 3153 3151 3150 3150 3150 3150 3150 3149 3148 3146 3146 3146 3149 3152 3152 3151 3152 3153 3154 3155 3155 3155 3155 3155 3154 3153 3153 3153
3152 3152 3152 3152 3154 3152 3151 3154 3155 3153 3152 3151 3149 3148 3148 3147 3145 3145 3145 3145 3144 3144 3142 3140 3140 3140 3143 3147 3146 3144 3145 3146 3148 3150 3151 3151 3151 3151 3151 3150 3150 3150
3148 3148 3146 3147 3148 3149 3149 3150 3149 3149 3148 3146 3144 3143 3142 3142 3141 3140 3140 3139 3138 3138 3136 3135 3135 3135 3136 3140 3141 3139 3140 3140 3142 3144 3146 3147 3147 3147 3147 3147 3147 3146
3144 3143 3142 3142 3144 3145 3144 3144 3144 3144 3143 3142 3140 3138 3137 3137 3135 3134 3135 3134 3133 3132 3130 3129 3130 3130 3131 3134 3136 3136 3136 3136 3138 3140 3142 3143 3142 3143 3143 3143 3143 3143
3140 3139 3138 3138 3139 3139 3139 3139 3139 3138 3137 3136 3135 3134 3132 3132 3130 3129 3130 3129 3127 3126 3125 3125 3125 3126 3127 3130 3132 3133 3133 3134 3136 3137 3137 3138 3138 3138 3139 3139 3139 3139
3136 3136 3135 3134 3134 3135 3134 3133 3133 3133 3132 3131 3130 3129 3127 3127 3126 3125 3125 3123 3121 3120 3120 3121 3120 3121 3124 3126 3127 3129 3130 3131 3133 3133 3132 3133 3134 3134 3135 3135 3135 3135
3132 3132 3131 3131 3130 3130 3130 3129 3129 3128 3127 3126 3124 3123 3123 3122 3121 3120 3119 3117 3116 3115 3116 3116 3116 3116 3119 3122 3123 3125 3126 3127 3129 3129 3128 3129 3130 3131 3131 3130 3130 3129
3128 3128 3128 3127 3126 3126 3126 3125 3125 3124 3123 3121 3120 3119 3118 3116 3115 3115 3113 3111 3111 3110 3111 3112 3112 3112 3115 3118 3119 3121 3122 3123 3125 3126 3126 3126 3127 3127 3126 3126 3126 3126
3124 3124 3124 3123 3122 3122 3121 3121 3120 3118 3117 3115 3114 3113 3112 3111 3109 3109 3108 3107 3107 3106 3107 3108 3108 3109 3112 3114 3116 3117 3118 3120 3122 3123 3123 3123 3123 3123 3122 3121 3122 3122
3121 3120 3120 3119 3119 3118 3117 3116 3115 3113 3112 3111 3109 3107 3106 3105 3103 3103 3103 3104 3103 3103 3104 3105 3105 3106 3109 3111 3113 3114 3115 3117 3119 3119 3119 3119 3120 3120 3119 3119 3119 3119
3117 3117 3116 3115 3115 3114 3113 3111 3110 3109 3108 3107 3105 3103 3102 3100 3098 3098 3099 3100 3100 3101 3102 3102 3103 3104 3106 3108 3110 3111 3112 3115 3116 3116 3116 3117 3117 3117 3117 3116 3115 3116
3113 3113 3112 3111 3110 3110 3109 3107 3105 3104 3104 3103 3102 3100 3098 3097 3095 3095 3095 3096 3098 3099 3100 3100 3101 3102 3104 3106 3107 3109 3111 3113 3114 3114 3114 3114 3114 3114 3114 3113 3111 3111